Ньор

Франция     46°19′36″N   0°27′29″E
темп.,
°C
ветер,
м/с
пор.,
м/с
влажн.,
%
обл.,
%
осадки,
мм/ч
давл.,
гПа
погр.,
м
21 апреля, ср
ср2123:00+9всв34854 0.0 101451
02:00+7всв34900 0.0 101466
05:00+6всв34931 0.0 101467
08:00+6всв37895 0.0 1015143
11:00+14в45665 0.0 1015605
14:00+17всв45542 0.2 10141658
17:00+18всв454964 0.0 10132197
20:00+14всв47735 0.1 1013205
22 апреля, чт
чт2223:00+9всв49915 0.0 1015172
02:00+8в47935 0.0 1015108
05:00+8всв46945 0.0 101696
08:00+7всв48933 0.0 1017165
11:00+15в45670 0.0 1018609
14:00+18всв45550 0.0 10181611
17:00+20всв47495 0.0 10172089
20:00+16всв612696 0.2 1018527
23 апреля, пт
пт2323:00+14всв816725 0.0 1020547
02:00+11всв815795 0.0 1020370
05:00+9всв613865 0.0 1020260
08:00+8всв613820 0.0 1021274
11:00+14всв711600 0.0 1021494
14:00+18в78470 0.0 10201055
17:00+20всв67500 0.0 10191172
20:00+15всв714625 0.0 1019454
24 апреля, сб
сб2423:00+12всв715656 0.0 1020341
02:00+10всв5127388 0.0 1019231
05:00+8в4777100 0.0 1019117
08:00+9в3676100 0.0 1019111
11:00+16в456099 0.0 1019422
14:00+21в454625 0.0 10181055
17:00+23всв4547100 0.0 10171632
20:00+18всв61171100 0.0 1016399
25 апреля, вс
вс2523:00+15всв61469100 0.0 1017319
02:00+13всв51178100 0.0 1017232
05:00+12всв4681100 0.0 1015108
08:00+11в487593 0.0 1014164
11:00+17в5757100 0.0 1014558
14:00+20юв4649100 0.0 10131302
17:00+20ю4457100 0.0 1011822
20:00+13с2492100 1.8 101284